This is the latest recevied weather packets stored in our database for station/object IR9AK-10. If no packets are shown the sender has not sent any weather packets the latest 10 day(s).
| Time | Temp. | Humidity | Pressure | Rain* | Wind** | Luminosity | Snow |
|---|---|---|---|---|---|---|---|
| 1778133700 | 21.67° C | 37% | 1056.1 hPa | - | - | - | - |
| 1778133100 | 21.11° C | 36% | 1056.2 hPa | - | - | - | - |
| 1778132501 | 21.11° C | 36% | 1056.2 hPa | - | - | - | - |
| 1778131902 | 21.11° C | 36% | 1056.4 hPa | - | - | - | - |
| 1778131303 | 21.11° C | 37% | 1056.3 hPa | - | - | - | - |
| 1778130705 | 21.11° C | 37% | 1056.3 hPa | - | - | - | - |
| 1778130105 | 20.56° C | 37% | 1056.3 hPa | - | - | - | - |
| 1778129507 | 20.56° C | 37% | 1056.3 hPa | - | - | - | - |
| 1778128908 | 20.56° C | 35% | 1056.3 hPa | - | - | - | - |
| 1778128308 | 20.56° C | 35% | 1056.4 hPa | - | - | - | - |
| 1778127708 | 20.56° C | 36% | 1056.4 hPa | - | - | - | - |
| 1778127109 | 20° C | 49% | 1056.4 hPa | - | - | - | - |
| 1778126510 | 20° C | 38% | 1056.4 hPa | - | - | - | - |
| 1778125911 | 20° C | 39% | 1056.4 hPa | - | - | - | - |
| 1778125311 | 20.56° C | 38% | 1056.5 hPa | - | - | - | - |
| 1778124713 | 20.56° C | 41% | 1056.6 hPa | - | - | - | - |
| 1778124114 | 20.56° C | 42% | 1056.6 hPa | - | - | - | - |
| 1778123514 | 21.11° C | 37% | 1056.4 hPa | - | - | - | - |
| 1778122914 | 20.56° C | 41% | 1056.5 hPa | - | - | - | - |
| 1778122316 | 21.11° C | 41% | 1056.5 hPa | - | - | - | - |
| 1778121718 | 20.56° C | 44% | 1056.4 hPa | - | - | - | - |
| 1778121118 | 21.11° C | 42% | 1056.6 hPa | - | - | - | - |
| 1778120519 | 21.11° C | 42% | 1056.8 hPa | - | - | - | - |
| 1778119920 | 21.11° C | 42% | 1056.5 hPa | - | - | - | - |
| 1778119321 | 21.11° C | 42% | 1056.6 hPa | - | - | - | - |
* Rain since midnight (hover to see other rain measurements)
** Current wind speed in m/s (hover to see current wind gust speed)